Fremont, MI

7:50 AM EST on November 20, 2019 (GMT -0500)
Fremont

Weather History for KFFX - October, 2019

Change the Weather History Date:

Sunday, October 20, 2019

  Actual Average (WUND) Record (WUND)
Temperature  
Mean Temperature 56 °F -  
Max Temperature 66 °F - - (-1)
Min Temperature 47 °F - - (-1)
Degree Days  
Heating Degree Days 8    
Growing Degree Days 6 (Base 50)    
Moisture  
Dew Point 48 °F    
Average Humidity 81    
Maximum Humidity 100    
Minimum Humidity 32    
Precipitation  
Precipitation 0.00 in - - ()
Sea Level Pressure  
Sea Level Pressure 29.86 in    
Wind  
Wind Speed 3 mph ()    
Max Wind Speed 8 mph    
Max Gust Speed -    
Visibility 9.7 miles    
Events Rain    
Averages and records for this station are not official NWS values.
T = Trace of Precipitation, MM = Missing Value Source: Averaged Metar Reports

Daily Weather History Graph

Daily Weather History Graph

Search for Another Location

Airport or City:

Astronomy

Oct. 20, 2019 Rise Set
Actual Time 8:03 AM EDT 6:53 PM EDT
Civil Twilight 7:34 AM EDT 7:22 PM EDT
Nautical Twilight 7:01 AM EDT 7:55 PM EDT
Astronomical Twilight 6:28 AM EDT 8:28 PM EDT
Moon 11:54 PM EDT 2:38 PM EDT
Length of Visible Light 11h 47m
Length of Day
10h 49m
Waning Gibbous, 59% of the Moon is Illuminated
Oct 20
Waning Gibbous
Oct 21
Last Quarter
Oct 27
New
Nov 4
First Quarter
Nov 12
Full

Hourly Weather History & Observations

Time (EDT) Temp. Dew Point Humidity Pressure Visibility Wind Dir Wind Speed Gust Speed Precip Events Conditions
12:15 AM 53.6 °F 43.5 °F 69% 29.75 in 10.0 mi SE 5.8 mph - N/A   Light Drizzle
12:16 AM 53.6 °F 43.5 °F 69% 29.75 in 10.0 mi SE 5.8 mph - N/A   Overcast
12:35 AM 54.0 °F 43.0 °F 66% 29.75 in 10.0 mi SE 5.8 mph - N/A   Mostly Cloudy
12:55 AM 54.1 °F 42.8 °F 66% 29.75 in 10.0 mi SE 5.8 mph - N/A   Overcast
12:59 AM 54.1 °F 42.8 °F 66% 29.75 in 10.0 mi SE 5.8 mph - N/A   Overcast
1:18 AM 53.8 °F 43.3 °F 68% 29.75 in 10.0 mi SSE 3.5 mph - N/A   Overcast
1:36 AM 53.4 °F 43.7 °F 70% 29.75 in 10.0 mi SE 3.5 mph - N/A   Overcast
1:55 AM 53.1 °F 43.9 °F 71% 29.75 in 10.0 mi SSE 3.5 mph - N/A   Overcast
1:56 AM 53.1 °F 43.9 °F 71% 29.75 in 10.0 mi SSE 3.5 mph - N/A   Overcast
2:15 AM 53.1 °F 44.4 °F 72% 29.76 in 10.0 mi SSE 3.5 mph - N/A Rain Rain
2:39 AM 52.3 °F 45.7 °F 78% 29.76 in 10.0 mi SSE 4.6 mph - N/A Rain Light Rain
2:57 AM 52.2 °F 47.1 °F 83% 29.77 in 10.0 mi SSE 3.5 mph - N/A Rain Light Rain
3:15 AM 51.8 °F 50.5 °F 95% 29.76 in 10.0 mi SSE 4.6 mph - N/A Rain Light Rain
3:16 AM 51.8 °F 50.5 °F 95% 29.76 in 10.0 mi SSE 3.5 mph - N/A Rain Light Rain
3:36 AM 51.8 °F 51.8 °F 100% 29.75 in 10.0 mi ESE 5.8 mph - N/A   Overcast
3:55 AM 51.8 °F 51.8 °F 100% 29.75 in 10.0 mi Calm Calm - N/A   Overcast
4:00 AM 51.8 °F 51.8 °F 100% 29.75 in 10.0 mi Calm Calm - N/A   Overcast
4:17 AM 51.4 °F 51.4 °F 100% 29.75 in 10.0 mi ESE 3.5 mph - N/A   Overcast
4:36 AM 51.3 °F 51.3 °F 100% 29.75 in 10.0 mi ESE 3.5 mph - N/A   Overcast
4:55 AM 51.3 °F 51.3 °F 100% 29.75 in 10.0 mi Calm Calm - N/A   Overcast
4:56 AM 51.3 °F 51.3 °F 100% 29.76 in 10.0 mi Calm Calm - N/A   Overcast
5:15 AM 51.1 °F 51.1 °F 100% 29.76 in 10.0 mi Calm Calm - N/A   Overcast
5:16 AM 51.1 °F 51.1 °F 100% 29.76 in 10.0 mi Calm Calm - N/A   Overcast
5:39 AM 50.2 °F 50.2 °F 100% 29.77 in 10.0 mi Calm Calm - N/A   Overcast
5:57 AM 50.4 °F 50.4 °F 100% 29.78 in 10.0 mi Calm Calm - N/A   Overcast
6:15 AM 50.2 °F 50.2 °F 100% 29.78 in 10.0 mi Calm Calm - N/A   Overcast
6:16 AM 50.2 °F 50.2 °F 100% 29.78 in 10.0 mi Calm Calm - N/A   Overcast
6:35 AM 50.5 °F 50.5 °F 100% 29.79 in 10.0 mi Calm Calm - N/A   Overcast
6:36 AM 50.7 °F 50.7 °F 100% 29.79 in 10.0 mi Calm Calm - N/A   Overcast
6:55 AM 50.5 °F 50.5 °F 100% 29.80 in 7.0 mi Calm Calm - N/A   Overcast
7:17 AM 50.9 °F 50.9 °F 100% 29.81 in 7.0 mi Calm Calm - N/A   Overcast
7:36 AM 50.5 °F 50.5 °F 100% 29.82 in 7.0 mi Calm Calm - N/A   Overcast
7:55 AM 50.5 °F 50.5 °F 100% 29.82 in 10.0 mi Calm Calm - N/A   Overcast
8:15 AM 50.4 °F 50.4 °F 100% 29.83 in 7.0 mi Calm Calm - N/A   Overcast
8:16 AM 50.4 °F 50.4 °F 100% 29.83 in 7.0 mi Calm Calm - N/A   Overcast
8:38 AM 51.1 °F 51.1 °F 100% 29.84 in 5.0 mi West 3.5 mph - N/A   Overcast
8:57 AM 51.8 °F 51.8 °F 100% 29.85 in 10.0 mi NW 3.5 mph - N/A   Overcast
9:15 AM 51.3 °F 51.3 °F 100% 29.85 in 10.0 mi NNW 3.5 mph - N/A   Mostly Cloudy
9:36 AM 52.7 °F 52.7 °F 100% 29.85 in 10.0 mi Calm Calm - N/A   Clear
9:55 AM 53.8 °F 53.8 °F 100% 29.86 in 10.0 mi North 3.5 mph - N/A   Scattered Clouds
10:00 AM 54.1 °F 54.1 °F 100% 29.86 in 10.0 mi NNE 4.6 mph - N/A   Mostly Cloudy
10:18 AM 54.0 °F 54.0 °F 100% 29.87 in 10.0 mi NNW 5.8 mph - N/A   Overcast
10:36 AM 52.7 °F 52.7 °F 100% 29.88 in 7.0 mi North 6.9 mph - N/A   Overcast
11:15 AM 54.0 °F 54.0 °F 100% 29.91 in 10.0 mi NNW 5.8 mph - N/A   Overcast
11:16 AM 54.0 °F 54.0 °F 100% 29.91 in 10.0 mi NNW 5.8 mph - N/A   Overcast
11:38 AM 53.8 °F 53.8 °F 100% 29.92 in 10.0 mi NW 8.1 mph - N/A   Overcast
11:57 AM 55.0 °F 54.7 °F 99% 29.92 in 10.0 mi NNW 6.9 mph - N/A   Overcast
12:15 PM 55.8 °F 54.1 °F 94% 29.92 in 10.0 mi NNW 4.6 mph - N/A   Overcast
12:35 PM 57.0 °F 52.2 °F 84% 29.92 in 10.0 mi NNW 3.5 mph - N/A   Scattered Clouds
12:36 PM 57.0 °F 52.0 °F 83% 29.92 in 10.0 mi NNW 3.5 mph - N/A   Scattered Clouds
12:55 PM 58.6 °F 50.0 °F 73% 29.92 in 10.0 mi Calm Calm - N/A   Clear
12:59 PM 59.2 °F 49.8 °F 71% 29.92 in 10.0 mi NW 3.5 mph - N/A   Clear
1:18 PM 59.9 °F 49.1 °F 67% 29.91 in 10.0 mi Calm Calm - N/A   Clear
1:36 PM 61.5 °F 48.9 °F 63% 29.91 in 10.0 mi Calm Calm - N/A   Clear
1:55 PM 62.8 °F 48.9 °F 61% 29.91 in 10.0 mi Calm Calm - N/A   Clear
2:15 PM 64.2 °F 46.9 °F 53% 29.90 in 10.0 mi Calm Calm - N/A   Clear
2:39 PM 64.0 °F 43.9 °F 48% 29.90 in 10.0 mi NNE 3.5 mph - N/A   Clear
2:57 PM 64.6 °F 43.7 °F 47% 29.90 in 10.0 mi Calm Calm - N/A   Clear
3:15 PM 65.5 °F 41.4 °F 41% 29.89 in 10.0 mi NNW 3.5 mph - N/A   Clear
3:35 PM 66.0 °F 41.2 °F 40% 29.90 in 10.0 mi NNW 4.6 mph - N/A   Clear
3:55 PM 66.4 °F 40.1 °F 38% 29.90 in 10.0 mi North 4.6 mph - N/A   Clear
4:18 PM 66.6 °F 36.7 °F 33% 29.90 in 7.0 mi Calm Calm - N/A   Clear
4:36 PM 66.6 °F 35.8 °F 32% 29.91 in 10.0 mi Calm Calm - N/A   Clear
4:55 PM 66.6 °F 36.0 °F 32% 29.91 in 10.0 mi Calm Calm - N/A   Clear
5:15 PM 66.2 °F 37.6 °F 35% 29.91 in 10.0 mi NNW 3.5 mph - N/A   Clear
5:39 PM 65.7 °F 38.3 °F 37% 29.92 in 10.0 mi Calm Calm - N/A   Clear
5:57 PM 64.4 °F 41.0 °F 42% 29.92 in 10.0 mi NNW 3.5 mph - N/A   Clear
6:15 PM 62.8 °F 42.1 °F 47% 29.92 in 10.0 mi NNW 4.6 mph - N/A   Clear
6:16 PM 62.8 °F 41.9 °F 46% 29.92 in 10.0 mi NNW 5.8 mph - N/A   Clear
6:35 PM 60.8 °F 41.9 °F 50% 29.92 in 10.0 mi NNW 4.6 mph - N/A   Clear
6:36 PM 60.6 °F 41.9 °F 50% 29.92 in 10.0 mi North 4.6 mph - N/A   Clear
6:55 PM 58.5 °F 42.6 °F 56% 29.93 in 10.0 mi North 3.5 mph - N/A   Clear
7:18 PM 56.8 °F 44.1 °F 62% 29.94 in 10.0 mi NW 3.5 mph - N/A   Clear
7:36 PM 54.9 °F 45.0 °F 69% 29.94 in 10.0 mi Calm Calm - N/A   Clear
7:55 PM 55.0 °F 45.5 °F 70% 29.94 in 10.0 mi Calm Calm - N/A   Clear
7:56 PM 55.0 °F 45.5 °F 70% 29.94 in 10.0 mi Calm Calm - N/A   Clear
8:15 PM 53.6 °F 46.6 °F 77% 29.95 in 10.0 mi Calm Calm - N/A   Clear
8:16 PM 53.6 °F 46.6 °F 77% 29.95 in 10.0 mi Calm Calm - N/A   Clear
8:39 PM 50.5 °F 50.0 °F 98% 29.95 in 10.0 mi Calm Calm - N/A   Clear
8:57 PM 49.6 °F 49.6 °F 100% 29.95 in 10.0 mi SSW 3.5 mph - N/A   Clear
9:15 PM 48.6 °F 48.6 °F 100% 29.95 in 10.0 mi Calm Calm - N/A   Clear
9:35 PM 48.0 °F 48.0 °F 100% 29.95 in 10.0 mi Calm Calm - N/A   Clear
9:36 PM 48.2 °F 48.2 °F 100% 29.95 in 10.0 mi Calm Calm - N/A   Clear
9:55 PM 48.4 °F 48.4 °F 100% 29.96 in 10.0 mi Calm Calm - N/A   Clear
10:00 PM 48.2 °F 48.2 °F 100% 29.96 in 10.0 mi Calm Calm - N/A   Clear
10:18 PM 48.2 °F 48.2 °F 100% 29.95 in 10.0 mi Calm Calm - N/A   Clear
10:36 PM 47.8 °F 47.8 °F 100% 29.96 in 10.0 mi Calm Calm - N/A   Clear
10:55 PM 48.2 °F 48.2 °F 100% 29.96 in 10.0 mi Calm Calm - N/A   Clear
11:15 PM 47.8 °F 47.8 °F 100% 29.95 in 10.0 mi East 4.6 mph - N/A   Clear
11:39 PM 49.1 °F 49.1 °F 100% 29.95 in 10.0 mi East 4.6 mph - N/A   Clear
11:57 PM 50.4 °F 50.4 °F 100% 29.94 in 10.0 mi East 3.5 mph - N/A   Clear